Location: Unspecified
(49.2170°N, 0.0000°E)
Time: 14:40:21
(UTC+00:00)

Tiros 1 despin weight - Pass Details

Date: 30 January 2021
Orbit: 593 x 642 km, 48.2° (Epoch: 06 March)

Event Time Altitude Azimuth Distance (km) Brightness Sun altitude
Rises 18:32:21 0° 277° (W) 2,862 ? -16.2°
Reaches altitude 10° 18:35:55 10° 248° (WSW) 1,943 ? -16.7°
Maximum altitude 18:37:46 12° 223° (SW) 1,779 ? -17.0°
Drops below altitude 10° 18:39:37 10° 198° (SSW) 1,928 ? -17.3°
Sets 18:43:08 0° 169° (S) 2,818 ? -17.9°
